Regional Weather Roundup
Issued by NWS

Home | Current Version | Previous Version | Graphics & Text | Print | Product List | Glossary On
Versions: 1 2 3 4 5 6 7 8 9 10 11 12 13 14 15 16 17 18 19 20 21 22 23 24 25 26 27 28 29 30 31 32 33 34 35 36 37 38 39 40 41 42 43 44 45 46 47 48 49 50
000
ASUS43 KMKX 190721
RWRWI

WISCONSIN REGIONAL WEATHER ROUNDUP
NATIONAL WEATHER SERVICE MILWAUKEE/SULLIVAN WI
200 AM CDT SAT APR 19 2014

NOTE: "FAIR" INDICATES FEW OR NO CLOUDS BELOW 12,000 FEET WITH NO
SIGNIFICANT WEATHER AND/OR OBSTRUCTIONS TO VISIBILITY.

WIZ001-002-006>008-014>016-023>028-190800-
NORTHWEST WISCONSIN

CITY           SKY/WX    TMP DP  RH WIND       PRES   REMARKS
SUPERIOR ARPT  CLOUDY    31  28  88 NE12G17   30.29F WCI  22
ASHLAND        CLOUDY    30  26  85 NE5       30.34S WCI  25
HAYWARD        CLOUDY    39  18  42 SE9       30.28S WCI  33
SIREN          MOCLDY    42  21  43 SE10G16   30.23S
RICE LAKE      CLOUDY    39  22  50 E9        30.28F WCI  33
LADYSMITH      CLOUDY    39  25  56 E9        30.32S WCI  33
EAU CLAIRE     MOCLDY    41  25  53 SE10      30.28R
MENOMONIE      CLOUDY    40  26  56 E9        30.27R WCI  34
NEW RICHMOND   MOCLDY    41  25  54 SE14G20   30.22F
OSCEOLA        PTCLDY    42  27  54 SE21G26   30.22F
$$

WIZ003>005-009-010-017-018-190800-
NORTH CENTRAL WISCONSIN

CITY           SKY/WX    TMP DP  RH WIND       PRES   REMARKS
WOODRUFF       MOCLDY    33  24  70 SE7       30.34S WCI  27
RHINELANDER    MOCLDY    30  23  75 E9        30.35F WCI  22
EAGLE RIVER    MOCLDY    31  22  71 CALM      30.35F
LAND O LAKES   CLOUDY    31  25  77 SE7       30.37S WCI  24
PHILLIPS       MOCLDY    34  22  62 E7        30.32S WCI  28
TOMAHAWK       MOCLDY    33  23  68 CALM      30.35F
MEDFORD        PTCLDY    35  27  74 E12       30.32S WCI  26
MERRILL        MOCLDY    34  25  68 CALM      30.36R
$$

WIZ029-030-035-036-043>047-190800-
CENTRAL WISCONSIN

CITY           SKY/WX    TMP DP  RH WIND       PRES   REMARKS
WAUSAU         MOCLDY    35  27  72 SE10G17   30.35R WCI  27
MOSINEE        MOCLDY    34  30  86 SE9       30.37R WCI  26
MARSHFIELD     CLEAR     35  27  72 SE15      30.34R WCI  25
STEVENS POINT  MOCLDY    33  25  71 SE6       30.38R WCI  27
WAUPACA        MOCLDY    36  27  69 E7        30.40S WCI  30
WAUTOMA        PTCLDY    35  26  70 E6        30.39S WCI  30
WISC RAPIDS    PTCLDY    35  25  66 SE6       30.38R WCI  30
CAMP DOUGLAS   CLEAR     37  30  76 SE15      30.34R WCI  28
$$

WIZ011>013-019>022-031-037>040-048>050-190800-
NORTHEAST WISCONSIN

CITY           SKY/WX    TMP DP  RH WIND       PRES   REMARKS
ANTIGO         MOCLDY    31  25  76 E12       30.37F WCI  22
STURGEON BAY   CLEAR     32  27  80 E6        30.45R WCI  26
GREEN BAY      CLEAR     32  27  81 E5        30.43R WCI  27
MANITOWOC      CLEAR     33  29  85 E5        30.44R WCI  29
APPLETON       PTCLDY    34  27  75 E8        30.39F WCI  27
CLINTONVILLE   MOCLDY    34  28  80 E6        30.41S WCI  29
OSHKOSH        PTCLDY    34  26  72 E9        30.39S WCI  27
$$

WIZ032>034-041-042-053>061-190800-
SOUTHWEST WISCONSIN

CITY           SKY/WX    TMP DP  RH WIND       PRES   REMARKS
LA CROSSE      PTCLDY    45  29  53 SE9       30.28S
SPARTA         PTCLDY    40  31  69 E8        30.32R WCI  35
VIROQUA        FAIR      40  32  72 SE16G22   30.28R WCI  32
BOSCOBEL       PTCLDY    41  30  65 E5        30.34R
PRAIRIE DU CHI PTCLDY    42  32  67 SE10G16   30.30R
PLATTEVILLE    FAIR      37  30  77 E16       30.32F WCI  27
$$

WIZ056-057-062-063-064-067-068-190800-
SOUTH CENTRAL WISCONSIN

CITY           SKY/WX    TMP DP  RH WIND       PRES   REMARKS
BARABOO/DELLS  CLEAR     35  26  69 E10       30.35S WCI  27
LONE ROCK      PTCLDY    37  29  72 E13       30.35R WCI  29
WATERTOWN      CLEAR     34  25  70 E7        30.36F WCI  28
MADISON        CLEAR     34  25  69 E7        30.37S WCI  28
MIDDLETON      FAIR      37  26  65 E10G16    30.36S WCI  29
MONROE         CLEAR     34  26  74 E8        30.35R WCI  27
JANESVILLE     CLEAR     36  27  69 E6        30.35S WCI  31
$$

WIZ051-052-058>065-066-070>072-190800-
SOUTHEAST WISCONSIN

CITY           SKY/WX    TMP DP  RH WIND       PRES   REMARKS
MILWAUKEE      PTCLDY    35  28  75 NE9       30.40S WCI  28
WAUKESHA       CLEAR     32  27  80 E7        30.39S WCI  26
MILWAUKEE/TIMM CLEAR     34  27  75 NE6       30.40F WCI  29
RACINE         CLEAR     36  27  69 E12       30.40S WCI  28
BURLINGTON     CLEAR     32  26  78 E3        30.38S
KENOSHA        CLEAR     34  27  75 E9        30.38S WCI  27
FOND DU LAC    PTCLDY    35  24  64 SE9       30.39S WCI  28
SHEBOYGAN      CLEAR     31  27  85 E6        30.41R WCI  25
WEST BEND      PTCLDY    32  27  80 E5        30.40S WCI  27
JUNEAU         PTCLDY    34  22  61 E10       30.39S WCI  26
$$

LSZ147-162-190800-
LAKE SUPERIOR

STATION/POSITION TIME  TEMP    WIND        PRES    WAVE
                       AIR SEA DIR/SP/G            HT/PER
                 (UTC) (F)     (DEG/KT/KT) (MB)    (FT/S)
DEVILS ISLAND    0700   33     100/ 10/ 12 1028.8F
PORT WING        0640   34      30/ 10/ 12 1026.4F
SAXON HARBOR     0600             CALM     1027.4
$$

LMZ867-665-643>646-190800-
LAKE MICHIGAN

STATION/POSITION TIME  TEMP    WIND        PRES    WAVE
                       AIR SEA DIR/SP/G            HT/PER
                 (UTC) (F)     (DEG/KT/KT) (MB)    (FT/S)
NORTHPORT PIER   0600   33      50/  5/  8 1030.1R
SISTER BAY       0623   31     130/  8/ 10   N/A
KEWAUNEE LAKESHO 0600   34      80/  6/  8 1030.4R
SHEBOYGAN LAKESH 0700   36      60/  8/ 10 1031.0R
PORT WASHINGTON  0640   36      50/  8/  9 1030.1S
MILWAUKEE LAKESH 0700   36      40/ 10/ 12   N/A
KENOSHA   LAKESH 0700   37      60/ 12/ 14   N/A
$$

TC  - TEMPERATURE IN CELSIUS
VSB - VISIBILITY IN STATUTE MILES
WCI - WIND CHILL INDEX
HX  - HEAT INDEX




USA.gov is the U.S. government's official web portal to all federal, state and local government web resources and services.